Location: Orient Land Trust / Valley View Hot Springs
(38.1923°N, 105.8154°W)
Time: 12:40:57
(UTC-06:00)

X-37B - Visible Passes

Search period start: 22 September 2020 00:00
Search period end: 02 October 2020 00:00
Orbit: 386 x 387 km, 45.0° (Epoch: 18 September)

Date Brightness Start Highest point End Pass type
(mag) Time Alt. Az. Time Alt. Az. Time Alt. Az.
22 Sep 3.7 04:27:46 16° ENE 04:27:46 16° ENE 04:28:43 10° ENE visible
22 Sep 0.6 06:00:04 12° WNW 06:02:56 84° NNE 06:06:05 10° ESE visible
23 Sep 1.4 05:04:30 47° NE 05:04:30 47° NE 05:07:22 10° E visible
24 Sep 0.8 05:41:23 35° W 05:42:20 50° SSW 05:45:24 10° SE visible
25 Sep 3.2 04:46:06 17° ESE 04:46:06 17° ESE 04:46:57 10° ESE visible
25 Sep 2.7 06:18:25 10° WSW 06:20:03 13° SW 06:21:40 10° S visible
26 Sep 2.7 05:23:17 17° S 05:23:17 17° S 05:24:21 10° SSE visible
29 Sep 3.4 20:33:48 10° SSW 20:34:00 11° SSW 20:34:00 11° SSW visible
30 Sep 2.5 19:36:19 10° S 19:38:09 15° SE 19:38:45 14° SE visible
01 Oct 0.8 20:12:48 10° SW 20:15:38 53° S 20:15:38 53° S visible
